Tracking 31027 objects as of 19-Jul-2025
HD Live streaming from Space Station
objects crossing your sky now

STARLINK-32335

Track STARLINK-32335 now!
10-day predictions
STARLINK-32335 is classified as:


NORAD ID: 61703
Int'l Code: 2024-195S
Perigee: 481.6 km
Apogee: 483.2 km
Inclination: 53.2 °
Period: 94.1 minutes
Semi major axis: 6853 km
RCS: Unknown
Launch date: October 30, 2024
Source: United States (US)
Launch site: AIR FORCE WESTERN TEST RANGE (AFWTR)
Your satellite tracking list
COSMOS 2502
Track 1 satellite(s)




NASA's NSSDC Master Catalog

Two Line Element Set (TLE):
1 61703U 24195S   25199.59281263 -.00000198  00000-0  54470-5 0  9994
2 61703  53.1592 162.4672 0001183  86.0703 274.0433 15.30194133 41412
Source of the keplerian elements: AFSPC